This demonstration page uses our WeatherBlox Daily Observations layout. Learn more.

Left ArrowRight Arrow

Hourly Observations for August 1, 2019

Temp ( °F °C ) Dew Point ( °F °C ) Humidity (%) Winds ( mph kmh ) Pressure ( in mb ) Visibility ( mi km ) Precip ( " mm )
12:39 am 00:39 Cloudy 72 22.2 69 20.6 91 91 S 7 11 30.08 1019 10 16 0.00 0.00
12:59 am 00:59 Cloudy 72 22.2 69 20.6 91 91 SSE 7 11 30.07 1018 10 16 0.00 0.00
1:59 am 01:59 Mostly Cloudy 72 22.2 70 21.1 94 94 WSW 3 6 30.07 1018 9 14 0.00 0.00
2:59 am 02:59 Mostly Cloudy 72 22.2 70 21.1 94 94 W 5 7 30.06 1018 10 16 0.00 0.00
3:59 am 03:59 Mostly Cloudy 73 22.8 69 20.6 87 87 W 7 11 30.05 1018 10 16 0.00 0.00
4:40 am 04:40 Mostly Clear 73 22.8 69 20.6 87 87 W 8 13 30.05 1018 10 16 0.00 0.00
4:59 am 04:59 Partly Cloudy 73 22.8 69 20.6 87 87 W 8 13 30.04 1017 10 16 0.00 0.00
5:59 am 05:59 Partly Cloudy 73 22.8 68 20 84 84 NW 7 11 30.05 1018 10 16 0.00 0.00
6:59 am 06:59 Partly Cloudy 74 23.3 68 20 82 82 NNW 6 9 30.08 1019 10 16 0.00 0.00
7:59 am 07:59 Partly Cloudy 77 25 69 20.6 77 77 NNW 3 6 30.09 1019 10 16 0.00 0.00
8:59 am 08:59 Partly Cloudy 79 26.1 69 20.6 72 72 NE 3 6 30.11 1020 10 16 0.00 0.00
9:59 am 09:59 Partly Cloudy 81 27.2 68 20 65 65 VRB 3 6 30.12 1020 10 16 0.00 0.00
10:59 am 10:59 Partly Cloudy 81 27.2 69 20.6 67 67 WSW 5 7 30.12 1020 10 16 0.00 0.00
11:59 am 11:59 Partly Cloudy 84 28.9 69 20.6 61 61 N 6 9 30.12 1020 10 16 0.00 0.00
12:59 pm 12:59 Partly Cloudy 85 29.4 70 21.1 61 61 N 7 11 30.12 1020 10 16 0.00 0.00
1:59 pm 13:59 Mostly Sunny 86 30 70 21.1 59 59 N 7 11 30.11 1020 10 16 0.00 0.00
2:59 pm 14:59 Mostly Sunny 87 30.6 70 21.1 57 57 NNE 7 11 30.09 1019 10 16 0.00 0.00
3:59 pm 15:59 Mostly Sunny 85 29.4 71 21.7 63 63 ENE 12 19 30.07 1018 10 16 0.00 0.00
4:59 pm 16:59 Mostly Sunny 84 28.9 70 21.1 63 63 ENE 10 17 30.06 1018 10 16 0.00 0.00
5:59 pm 17:59 Partly Cloudy 85 29.4 67 19.4 55 55 ENE 8 13 30.04 1017 10 16 0.00 0.00
6:59 pm 18:59 Mostly Cloudy 83 28.3 69 20.6 63 63 ESE 8 13 30.05 1018 10 16 0.00 0.00
7:59 pm 19:59 Mostly Cloudy 81 27.2 70 21.1 69 69 SE 3 6 30.09 1019 10 16 0.00 0.00
8:59 pm 20:59 Mostly Cloudy 79 26.1 70 21.1 74 74 ESE 7 11 30.09 1019 10 16 0.00 0.00
9:59 pm 21:59 Mostly Cloudy 78 25.6 70 21.1 76 76 S 5 7 30.08 1019 10 16 0.00 0.00
10:59 pm 22:59 Mostly Cloudy 77 25 70 21.1 79 79 S 5 7 30.07 1018 10 16 0.00 0.00
11:59 pm 23:59 Partly Cloudy 77 25 70 21.1 79 79 SE 3 6 30.09 1019 10 16 0.00 0.00

Powered by AerisWeather